START_TIME,STEP,MOV.,AL01,t_acc.,AL02,t_acc.,E37,t_acc.,H21,t_acc.
1979-03-03 13:15:59.790 ,0,0,140.,24.0,35.,24.0,0.,24.0,0.,24.0
1979-03-03 13:16:23.790 ,2,1,94.,24.0,36.,24.0,0.,24.0,0.,24.0
1979-03-03 13:16:47.790 ,1,1,66.,24.0,33.,24.0,0.,24.0,0.,24.0
1979-03-03 13:17:11.790 ,0,1,70.,24.0,23.,24.0,0.,24.0,0.,24.0
1979-03-03 13:17:35.790 ,0,1,90.,24.0,34.,24.0,0.,24.0,0.,24.0
1979-03-03 13:17:59.790 ,1,1,88.,24.0,28.,24.0,0.,24.0,0.,24.0
1979-03-03 13:18:23.790 ,2,1,62.,24.0,31.,24.0,0.,24.0,0.,24.0
1979-03-03 13:18:47.790 ,3,1,58.,24.0,22.,24.0,0.,24.0,0.,24.0
1979-03-03 13:19:11.790 ,4,1,100.,24.0,25.,24.0,0.,24.0,0.,24.0
1979-03-03 13:19:35.790 ,5,1,136.,24.0,49.,24.0,0.,24.0,0.,24.0
1979-03-03 13:19:59.790 ,6,1,200.,24.0,63.,24.0,0.,24.0,0.,24.0
1979-03-03 13:20:23.790 ,7,1,152.,24.0,49.,24.0,0.,24.0,0.,24.0
1979-03-03 13:20:47.790 ,7,1,10.,24.0,0.,24.0,0.,24.0,0.,24.0
1979-03-03 13:21:11.790 ,6,1,56.,24.0,9.,24.0,0.,24.0,0.,24.0
1979-03-03 13:21:35.790 ,5,1,184.,24.0,64.,24.0,0.,24.0,0.,24.0
1979-03-03 13:21:59.790 ,5,0,,0,,0,,0,,0
1979-03-03 13:22:23.790 ,0,0,124.,24.0,57.,24.0,0.,24.0,0.,24.0
1979-03-03 13:22:47.790 ,0,0,,0,,0,,0,,0
1979-03-03 14:39:36.390 ,0,0,55.,24.0,15.,24.0,0.,24.0,0.,24.0
1979-03-03 14:39:59.790 ,1,1,49.,24.0,11.,24.0,0.,24.0,0.,24.0
1979-03-03 14:40:23.790 ,0,1,61.,24.0,22.,24.0,0.,24.0,0.,24.0
1979-03-03 14:40:47.790 ,0,1,76.,24.0,29.,24.0,0.,24.0,0.,24.0
1979-03-03 14:41:11.790 ,1,1,72.,24.0,21.,24.0,0.,24.0,0.,24.0
1979-03-03 14:41:35.790 ,2,1,53.,24.0,21.,24.0,1.,24.0,0.,24.0
1979-03-03 14:41:59.790 ,3,1,74.,24.0,22.,24.0,0.,24.0,0.,24.0
1979-03-03 14:42:23.790 ,4,1,92.,24.0,35.,24.0,0.,24.0,0.,24.0
1979-03-03 14:42:47.790 ,5,1,108.,24.0,45.,24.0,1.,24.0,0.,24.0
1979-03-03 14:43:11.790 ,6,1,136.,24.0,59.,24.0,0.,24.0,0.,24.0
1979-03-03 14:43:35.790 ,7,1,98.,24.0,30.,24.0,0.,24.0,0.,24.0
1979-03-03 14:43:59.790 ,7,1,9.,24.0,0.,24.0,0.,24.0,0.,24.0
1979-03-03 14:44:23.790 ,6,1,45.,24.0,12.,24.0,0.,24.0,0.,24.0
1979-03-03 14:44:47.790 ,5,1,140.,24.0,45.,24.0,0.,24.0,0.,24.0
1979-03-03 14:45:11.790 ,4,1,136.,24.0,45.,24.0,0.,24.0,0.,24.0
1979-03-03 14:45:35.790 ,3,1,114.,24.0,34.,24.0,0.,24.0,0.,24.0
1979-03-03 14:45:59.790 ,2,1,59.,24.0,20.,24.0,0.,24.0,0.,24.0
1979-03-03 14:46:23.790 ,1,1,58.,24.0,18.,24.0,0.,24.0,0.,24.0
1979-03-03 14:46:47.790 ,0,1,59.,24.0,28.,24.0,0.,24.0,0.,24.0
1979-03-03 14:47:11.790 ,0,1,72.,24.0,26.,24.0,0.,24.0,0.,24.0
1979-03-03 14:47:35.790 ,1,1,48.,24.0,19.,24.0,0.,24.0,0.,24.0
1979-03-03 14:47:59.790 ,2,1,60.,24.0,16.,24.0,0.,24.0,0.,24.0
1979-03-03 14:48:23.790 ,3,1,55.,24.0,18.,24.0,1.,24.0,0.,24.0
1979-03-03 14:48:47.790 ,4,1,78.,24.0,29.,24.0,0.,24.0,0.,24.0
1979-03-03 14:49:11.790 ,5,1,136.,24.0,46.,24.0,0.,24.0,0.,24.0
1979-03-03 14:49:35.790 ,6,1,126.,24.0,35.,24.0,0.,24.0,0.,24.0
1979-03-03 14:49:59.790 ,7,1,98.,24.0,29.,24.0,0.,24.0,0.,24.0
1979-03-03 14:50:23.790 ,7,1,15.,24.0,0.,24.0,0.,24.0,0.,24.0
1979-03-03 14:50:47.790 ,6,1,34.,24.0,8.,24.0,0.,24.0,0.,24.0
1979-03-03 14:51:11.790 ,5,1,132.,24.0,47.,24.0,0.,24.0,0.,24.0
1979-03-03 14:51:35.790 ,4,1,132.,24.0,47.,24.0,0.,24.0,0.,24.0
1979-03-03 14:51:59.790 ,3,1,108.,24.0,40.,24.0,0.,24.0,0.,24.0
1979-03-03 14:52:23.790 ,2,1,58.,24.0,26.,24.0,0.,24.0,0.,24.0
1979-03-03 14:52:47.790 ,1,1,52.,24.0,22.,24.0,0.,24.0,0.,24.0
1979-03-03 14:53:11.790 ,0,1,68.,24.0,21.,24.0,0.,24.0,0.,24.0
1979-03-03 14:53:35.790 ,0,1,98.,24.0,36.,24.0,0.,24.0,0.,24.0
1979-03-03 14:53:59.790 ,1,1,120.,24.0,22.,24.0,0.,24.0,0.,24.0
1979-03-03 14:54:23.790 ,2,1,76.,24.0,23.,24.0,0.,24.0,0.,24.0
1979-03-03 14:54:47.790 ,3,1,57.,24.0,20.,24.0,0.,24.0,0.,24.0
1979-03-03 14:55:11.790 ,4,1,88.,24.0,22.,24.0,1.,24.0,0.,24.0
1979-03-03 14:55:35.790 ,5,1,126.,24.0,54.,24.0,0.,24.0,0.,24.0
1979-03-03 14:55:59.790 ,6,1,144.,24.0,41.,24.0,0.,24.0,0.,24.0
1979-03-03 14:56:23.790 ,7,1,120.,24.0,40.,24.0,0.,24.0,0.,24.0
1979-03-03 14:56:47.790 ,7,1,8.,24.0,0.,24.0,0.,24.0,0.,24.0
1979-03-03 14:57:11.790 ,6,1,49.,24.0,12.,24.0,0.,24.0,0.,24.0
1979-03-03 14:57:35.790 ,5,1,148.,24.0,33.,24.0,0.,24.0,0.,24.0
1979-03-03 14:57:59.790 ,4,1,160.,24.0,52.,24.0,0.,24.0,0.,24.0
1979-03-03 14:58:23.790 ,3,1,122.,24.0,38.,24.0,1.,24.0,0.,24.0
1979-03-03 14:58:47.790 ,2,1,68.,24.0,18.,24.0,0.,24.0,0.,24.0
1979-03-03 14:59:11.790 ,1,1,35.,24.0,14.,24.0,0.,24.0,0.,24.0
1979-03-03 14:59:35.790 ,0,1,55.,24.0,14.,24.0,0.,24.0,0.,24.0
1979-03-03 14:59:59.790 ,0,1,64.,24.0,19.,24.0,0.,24.0,0.,24.0
